Weather in Bura

Russia / Zabaykalsky Krai     50°45′10″N   119°26′53″E
temp.,
°C
wind,
m/s
gust,
m/s
humid.,
%
clouds,
%
prec.,
mm/h
press.,
hPa
HPBL,
m
17 september, fri
fri1700:00+7s11905 0.0 101310
03:00+6s32935 0.0 101233
06:00+6ssw22945 0.0 101215
09:00+11wnw39766 0.0 1012574
12:00+14nw575798 0.0 10111293
15:00+14nw574833 0.0 10111879
18:00+12nnw346599 0.0 101285
21:00+6nnw22691 0.0 101611
18 september, sat
sat1800:00+4nne22705 0.0 101918
03:00+3n226786 0.0 102112
06:00+2nne226478 0.0 102215
09:00+5nne225999 0.0 1023186
12:00+10nne114798 0.0 1021868
15:00+10w0144100 0.0 1019940
18:00+9nw0161100 0.0 101910
21:00+7nw1159100 0.0 102010
19 september, sun
sun1900:00+6ssw116387 0.0 102011
03:00+6nne11655 0.0 102011
06:00+3nne22765 0.0 102110
09:00+7n11651 0.0 1021164
12:00+12nw10530 0.0 1020557
15:00+14w11530 0.0 1018852
18:00+13ssw11674 0.0 101811
21:00+8sse11785 0.0 101910
20 september, mon
mon2000:00+7se118081 0.0 101910
03:00+6ese118198 0.0 101810
06:00+6ese118028 0.0 101810
09:00+10se127086 0.0 1017156
12:00+14se2363100 0.0 1015521
15:00+13ssw1175100 0.0 1013134
18:00+13nne1180100 0.0 101216
21:00+11ne2285100 0.0 101221
21 september, tue
tue2100:00+10ne1189100 0.0 101111
03:00+10ene1190100 0.0 101010
06:00+9e1191100 0.0 101010
09:00+12ese1183100 0.0 1010127
12:00+15s1268100 0.0 1009669
15:00+17se1264100 0.0 1008885
18:00+16se2275100 0.0 100732
21:00+12e117698 0.0 100911